DECAYED

CZ-6A DEB, 61397 (Decayed)

Orbit data source: Space-Track

CZ-6A DEB, 61397 was space debris in LEO originally from a launch on Tue, 06 Aug 2024 UTC launched from the Taiyaun Space Center, China (TSC). Debris objects in space refer to the collection of defunct objects orbiting the Earth. Examples of debris include non-operational satellites, rocket bodies, and fragments generated from explosions, collisions, or faulty payload assembly.

Loading next visibility...
Identifier
61397, 2024-140XN
Orbit
Decayed
Country
Flag of CNCN / PRC
Related business
Manufacturer
SAST
Mission
Decayed spacecraft
Bus & Motor
Unknown
Mass
Unknown
Launch date (UTC)
2024-08-06 (2 years ago)
Launch vehicle
Unknown
Launch site
Taiyaun Space Center, China (TSC)
Object type
Payload
Rocket body
Debris
Shape & HBR
Unknown shape, 0.1 m
Radar Cross Section
Medium (>0.1 m² and <1 m²)

Expand to show TLE details & history
Last TLE update: 8 months ago

TLE from 8 months ago
0 CZ-6A DEB
1 61397U 24140XN  25288.03381695  .07621433  11222+0  22559-1 0  9994
2 61397  88.9431 295.9909 0010362 207.2283 152.8463 15.98189457 59707
Epoch: 2025-10-15T00:48Z
TLE epoch observation values (Epoch: 2025-10-15T00:48:41.784Z)
Latitude
-0.00001°
Longitude
-99.9969°
Altitude
288.887 km
Speed
7.731 km/s
True Right ascension
19h 43m 57s
True Declination
0° 00' 00"
Sunlit
Object was in daylight at epoch
Visualization orbit readout
Latitude
Unknown
Longitude
Unknown
Altitude
Unknown
Speed
Unknown
Apparent Right ascension
Unknown
Apparent Declination
Unknown
Sunlit
N/A
Visualization observer readout
Local Sidereal Time
10:17:11
Azimuth
Unknown
Elevation
Unknown
Doppler factor
Unknown
Orbital elements
Apogee altitude
283.038 km
Perigee altitude
269.248 km
Semi-major axis
6,654.28 km
Eccentricity
0.00104
Inclination
88.9431°
RAAN
295.9909°
Arg. of periapsis
207.2283°
True anomaly
152.90043°
Mean anomaly
152.8463°
Eccentric anomaly
152.87337°
Mean motion
3.99845 °/min
Orbital period
90.03 mins
BSTAR
0.022559
Loading maneuver chart data...
Computing Atmospheric mass density...
Loading historical data...
Loading historical data...
Loading historical data...
Loading historical data...
Loading historical data...
Loading historical data...
Loading historical data...

Documentation

Showing up to 5 results
|